Regional Weather Roundup
Issued by NWS Portland, ME

Home | Current Version | Previous Version | Text Only | Print | Product List | Glossary On
Versions: 1 2 3 4 5 6 7 8 9 10 11 12 13 14 15 16 17 18 19 20 21 22 23 24 25 26 27 28 29 30 31 32 33 34 35 36 37 38 39 40 41 42 43 44 45 46 47 48 49 50
000
ASUS41 KGYX 181610
RWRGYX
WEATHER ROUNDUP FOR MAINE AND NEW HAMPSHIRE
NATIONAL WEATHER SERVICE GRAY ME
1200 PM EDT WED OCT 18 2017

MEZ002-005-006-010-012-015-018-020-021-024-026-027-029-181700-
MAINE

CITY           SKY/WX    TMP DP  RH WIND       PRES   REMARKS
PORTLAND       MOSUNNY   65  42  43 W10       30.21R
BAR HARBOR     SUNNY     64  40  41 NW14G21   30.15S
WISCASSET      SUNNY     67  42  40 W7G17     30.19F
ROCKLAND       SUNNY     65  45  48 W16       30.16F
FRYEBURG       SUNNY     66  43  43 VRB7      30.20S
LEWISTONAUBURN SUNNY     64  43  46 W10       30.20S
AUGUSTA        SUNNY     63  40  42 NW9       30.18F
WATERVILLE     SUNNY     63  44  50 VRB7      30.15S
BANGOR         MOSUNNY   64  41  42 W14G21    30.15S
GREENVILLE       N/A     56  34  43 NW16G28   30.13R
MILLINOCKET    SUNNY     60  31  33 VRB7G22   30.13R
HOULTON        SUNNY     60  33  36 NW13G23   30.06R
PRESQUE ISLE   MOSUNNY   55  35  47 NW15G28   30.08R
FRENCHVILLE    PTSUNNY   51  29  42 NW18G26   30.07R
CARIBOU        SUNNY     56  35  45 NW12G25   30.06R
$$

NHZ002-005-008-009-011-012-014-181700-
NEW HAMPSHIRE

CITY           SKY/WX    TMP DP  RH WIND       PRES   REMARKS
PORTSMOUTH     SUNNY     64  44  47 W8        30.21F
ROCHESTER      SUNNY     65  43  44 VRB7      30.22F
NASHUA         SUNNY     64  46  52 SE7       30.26S
MANCHESTER     MOSUNNY   64  44  48 VRB5      30.24S
CONCORD        SUNNY     65  44  46 N8        30.24S
LACONIA        SUNNY     63  44  50 W12       30.23F
PLYMOUTH       FAIR      64  44  48 W8G17     30.23S
BERLIN         SUNNY     61  41  47 W10G18    30.20F
WHITEFIELD     PTSUNNY   61  45  55 W9        30.23R
JAFFREY        SUNNY     63  42  46 W7        30.27R
KEENE          SUNNY     65  45  48 CALM      30.27F
LEBANON        SUNNY     62  42  47 CALM      30.24F
MT WASHINGTON  PTSUNNY   32  30  93 W46G58      N/A  WCI  15
$$

VTZ005-007-008-181700-
VERMONT

CITY           SKY/WX    TMP DP  RH WIND       PRES   REMARKS
ST JOHNSBURY     N/A     61  46  57 MISG      30.22S
MONTPELIER     SUNNY     60  48  64 N6        30.28S
BURLINGTON     MOSUNNY   62  44  51 VRB7      30.24S
$$

MAZ007-012-024-CTZ003-RIZ002-NYZ038-NYZ072-181700-
SOUTHERN NEW ENGLAND AND NY

CITY           SKY/WX    TMP DP  RH WIND       PRES   REMARKS
BOSTON         MOSUNNY   67  42  40 W10       30.26S
WORCESTER      SUNNY     61  40  45 W9        30.28R
NANTUCKET      SUNNY     65  54  67 W15       30.28S
PROVIDENCE     MOSUNNY   68  46  45 W5        30.29S
HARTFORD       MOSUNNY   66  45  46 SE5       30.29S
ALBANY         MOSUNNY   62  43  49 CALM      30.29F
NEW YORK CITY  MOSUNNY   65  42  43 NW5       30.32S
$$

ANZ081-ANZ082-ANZ150-NHZ014-MEZ023>029-181700-
COASTAL MARINE OBSERVATIONS

STATION/POSITION TIME  TEMP    WIND        PRES    WAVE
                       AIR SEA DIR/SP/G            HT/PER
                 (UTC) (F)     (DEG/KT/KT) (MB)    (FT/S)
MOUNT DESERT ROC 1600   54     240/ 16/ 17 1021.4F
MATINICUS ROCK   1500   53     260/ 16/ 17 1021.7R
ISLE OF SHOALS   1500   56     250/ 11/ 12 1023.6R
JEFFREYS LEDGE   1536      58                N/A     3/ 4
GEORGES BANK BUO 1450   58 61              1024.5    3/ 8
$$

.............KEY..............
   WCI - WIND CHILL
   TC  - TEMPERATURE IN CELSIUS
   VSB - VISIBILITY IN MILES
   HX  - HEAT INDEX
   FAIR- INDICATES FEW OR NO CLOUDS BELOW 12,000 FT, WITH NO
         SIGNIFICANT WEATHER AND/OR OBSTRUCTIONS TO VISIBILITY.






USA.gov is the U.S. government's official web portal to all federal, state and local government web resources and services.